,,,PA_Meas_PMT16A,,PR_Meas_QMR101_102,,RH_Meas_QMH101,,SR_Meas_QMS101,,TA_Meas_QMH101,,GenWind,,GenWind,
date,time,status,PA,status,PR,status,RH,status,SR,status,TA,status,DirAvg,status,SpdAvg,
2009-07-09, 00:00:04,VALID,1004.4,VALID,0,VALID,93.4767,VALID,0,VALID,24.2115,VALID,57,VALID,0,
2009-07-09, 00:01:04,VALID,1004.39,VALID,0,VALID,93.4538,VALID,0,VALID,24.1902,VALID,57,VALID,0,
2009-07-09, 00:02:04,VALID,1004.39,VALID,0,VALID,93.4843,VALID,0,VALID,24.1939,VALID,52,VALID,0.3625,
2009-07-09, 00:03:04,VALID,1004.38,VALID,0,VALID,93.5911,VALID,0,VALID,24.1726,VALID,52,VALID,0.0605469,
2009-07-09, 00:04:04,VALID,1004.37,VALID,0,VALID,93.4767,VALID,0,VALID,24.1318,VALID,52,VALID,0.343359,
2009-07-09, 00:05:04,VALID,1004.35,VALID,0,VALID,93.5758,VALID,0,VALID,24.1123,VALID,52,VALID,0,
2009-07-09, 00:06:04,VALID,1004.36,VALID,0,VALID,93.5377,VALID,0,VALID,24.0929,VALID,52,VALID,0.104297,
2009-07-09, 00:07:04,VALID,1004.36,VALID,0,VALID,93.5377,VALID,0,VALID,24.0539,VALID,52,VALID,0,
2009-07-09, 00:08:04,VALID,1004.33,VALID,0,VALID,93.4996,VALID,0,VALID,24.0345,VALID,52,VALID,0,
2009-07-09, 00:09:04,VALID,1004.31,VALID,0,VALID,93.614,VALID,0,VALID,24.015,VALID,52,VALID,0,
2009-07-09, 00:10:04,VALID,1004.34,VALID,0,VALID,93.6598,VALID,0,VALID,23.9955,VALID,52,VALID,0,
2009-07-09, 00:11:04,VALID,1004.32,VALID,0,VALID,93.5987,VALID,0,VALID,23.9761,VALID,52,VALID,0,
2009-07-09, 00:12:04,VALID,1004.33,VALID,0,VALID,93.5835,VALID,0,VALID,23.9353,VALID,51,VALID,0.396094,
2009-07-09, 00:13:04,VALID,1004.29,VALID,0,VALID,93.6445,VALID,0,VALID,23.8946,VALID,50,VALID,0.278516,
2009-07-09, 00:14:04,VALID,1004.31,VALID,0,VALID,93.6903,VALID,0,VALID,23.8964,VALID,50,VALID,0.103125,
2009-07-09, 00:15:04,VALID,1004.27,VALID,0,VALID,93.7589,VALID,0.100563,VALID,23.8751,VALID,50,VALID,0.377344,
2009-07-09, 00:16:04,VALID,1004.26,VALID,0,VALID,93.8963,VALID,0,VALID,23.8964,VALID,50,VALID,0.154297,
2009-07-09, 00:17:04,VALID,1004.23,VALID,0,VALID,93.9802,VALID,0.100563,VALID,23.8946,VALID,50,VALID,0,
2009-07-09, 00:18:04,VALID,1004.2,VALID,0,VALID,93.9954,VALID,0.100563,VALID,23.8964,VALID,50,VALID,0.196094,
2009-07-09, 00:19:04,VALID,1004.24,VALID,0,VALID,94.0488,VALID,0,VALID,23.9159,VALID,50,VALID,0.225,
2009-07-09, 00:20:04,VALID,1004.22,VALID,0,VALID,93.9878,VALID,0.100563,VALID,23.8964,VALID,50,VALID,0.15,
2009-07-09, 00:21:04,VALID,1004.22,VALID,0,VALID,93.9497,VALID,0,VALID,23.838,VALID,50,VALID,0.294531,
2009-07-09, 00:22:04,VALID,1004.25,VALID,0,VALID,93.9573,VALID,0,VALID,23.8185,VALID,50,VALID,0.11875,
2009-07-09, 00:23:04,VALID,1004.26,VALID,0,VALID,93.9878,VALID,0,VALID,23.7991,VALID,50,VALID,0.332422,
2009-07-09, 00:24:04,VALID,1004.26,VALID,0,VALID,94.087,VALID,0.100563,VALID,23.8185,VALID,50,VALID,0.267578,
2009-07-09, 00:25:04,VALID,1004.26,VALID,0,VALID,94.1328,VALID,0,VALID,23.8787,VALID,50,VALID,0.454688,
2009-07-09, 00:26:04,VALID,1004.29,VALID,0,VALID,94.1709,VALID,0.100563,VALID,23.838,VALID,47,VALID,0.484766,
2009-07-09, 00:27:04,VALID,1004.3,VALID,0,VALID,94.2014,VALID,0,VALID,23.8203,VALID,45,VALID,0.503125,
2009-07-09, 00:28:04,VALID,1004.31,VALID,0,VALID,94.209,VALID,0,VALID,23.8009,VALID,42,VALID,0.544531,
2009-07-09, 00:29:04,VALID,1004.31,VALID,0,VALID,94.1938,VALID,0,VALID,23.7619,VALID,41,VALID,0.582031,
2009-07-09, 00:30:04,VALID,1004.3,VALID,0,VALID,94.1938,VALID,0,VALID,23.7619,VALID,39,VALID,0.423438,
2009-07-09, 00:31:04,VALID,1004.26,VALID,0,VALID,94.2319,VALID,0,VALID,23.7212,VALID,39,VALID,0.0765625,
2009-07-09, 00:32:04,VALID,1004.25,VALID,0,VALID,94.2701,VALID,0,VALID,23.7425,VALID,39,VALID,0.167578,
2009-07-09, 00:33:04,VALID,1004.23,VALID,0,VALID,94.293,VALID,0,VALID,23.7619,VALID,39,VALID,0.0683594,
2009-07-09, 00:34:04,VALID,1004.19,VALID,0,VALID,94.3387,VALID,0,VALID,23.7425,VALID,39,VALID,0.135937,
2009-07-09, 00:35:04,VALID,1004.2,VALID,0,VALID,94.3311,VALID,0,VALID,23.7425,VALID,39,VALID,0,
2009-07-09, 00:36:04,VALID,1004.18,VALID,0,VALID,94.3769,VALID,0,VALID,23.7407,VALID,39,VALID,0.289063,
2009-07-09, 00:37:04,VALID,1004.16,VALID,0,VALID,94.4074,VALID,0,VALID,23.7619,VALID,39,VALID,0.325,
2009-07-09, 00:38:04,VALID,1004.17,VALID,0,VALID,94.4455,VALID,0,VALID,23.8009,VALID,39,VALID,0.317578,
2009-07-09, 00:39:04,VALID,1004.15,VALID,0,VALID,94.4837,VALID,0,VALID,23.8398,VALID,39,VALID,0.305859,
2009-07-09, 00:40:04,VALID,1004.1,VALID,0,VALID,94.5295,VALID,0,VALID,23.8398,VALID,39,VALID,0.346094,
2009-07-09, 00:41:04,VALID,1004.09,VALID,0,VALID,94.5752,VALID,0,VALID,23.8593,VALID,39,VALID,0.169141,
2009-07-09, 00:42:04,VALID,1004.07,VALID,0,VALID,94.5905,VALID,0,VALID,23.8593,VALID,39,VALID,0,
2009-07-09, 00:43:04,VALID,1004.07,VALID,0,VALID,94.5905,VALID,0,VALID,23.8769,VALID,39,VALID,0,
2009-07-09, 00:44:04,VALID,1004.04,VALID,0,VALID,94.621,VALID,0,VALID,23.8769,VALID,39,VALID,0,
2009-07-09, 00:45:04,VALID,1004.03,VALID,0,VALID,94.6057,VALID,0,VALID,23.8769,VALID,39,VALID,0,
2009-07-09, 00:46:04,VALID,1004.01,VALID,0,VALID,94.621,VALID,0,VALID,23.9177,VALID,39,VALID,0,
2009-07-09, 00:47:04,VALID,1004.02,VALID,0,VALID,94.6744,VALID,0,VALID,23.9548,VALID,39,VALID,0,
2009-07-09, 00:48:04,VALID,1004.01,VALID,0,VALID,94.6973,VALID,0,VALID,23.9955,VALID,46,VALID,0,
2009-07-09, 00:49:04,VALID,1003.98,VALID,0,VALID,94.7202,VALID,0,VALID,24.0345,VALID,46,VALID,0,
2009-07-09, 00:50:04,VALID,1003.97,VALID,0,VALID,94.7507,VALID,0,VALID,24.0345,VALID,47,VALID,0,
2009-07-09, 00:51:04,VALID,1003.96,VALID,0,VALID,94.7583,VALID,0,VALID,24.0734,VALID,47,VALID,0,
2009-07-09, 00:52:04,VALID,1003.92,VALID,0,VALID,94.7507,VALID,0,VALID,24.0734,VALID,47,VALID,0,
2009-07-09, 00:53:04,VALID,1003.88,VALID,0,VALID,94.7431,VALID,0,VALID,24.0734,VALID,47,VALID,0,
2009-07-09, 00:54:04,VALID,1003.91,VALID,0,VALID,94.7431,VALID,0,VALID,24.0734,VALID,48,VALID,0,
2009-07-09, 00:55:04,VALID,1003.89,VALID,0,VALID,94.7202,VALID,0,VALID,24.0326,VALID,74,VALID,0,
2009-07-09, 00:56:04,VALID,1003.92,VALID,0,VALID,94.7202,VALID,0,VALID,24.0539,VALID,73,VALID,0,
2009-07-09, 00:57:04,VALID,1003.9,VALID,0,VALID,94.7125,VALID,0,VALID,24.0132,VALID,73,VALID,0.337891,
2009-07-09, 00:58:04,VALID,1003.89,VALID,0,VALID,94.682,VALID,0,VALID,23.9955,VALID,73,VALID,0.379297,
2009-07-09, 00:59:04,VALID,1003.88,VALID,0,VALID,94.6515,VALID,0,VALID,23.9353,VALID,73,VALID,0.364062,
2009-07-09, 01:00:04,VALID,1003.87,VALID,0,VALID,94.621,VALID,0,VALID,23.8982,VALID,73,VALID,0.344141,
2009-07-09, 01:01:04,VALID,1003.87,VALID,0,VALID,94.5981,VALID,0,VALID,23.8769,VALID,73,VALID,0.264453,
2009-07-09, 01:02:04,VALID,1003.87,VALID,0,VALID,94.56,VALID,0,VALID,23.8398,VALID,73,VALID,0.268359,
2009-07-09, 01:03:04,VALID,1003.84,VALID,0,VALID,94.5295,VALID,0,VALID,23.8009,VALID,73,VALID,0.389062,
2009-07-09, 01:04:04,VALID,1003.84,VALID,0,VALID,94.5371,VALID,0,VALID,23.8009,VALID,73,VALID,0.402344,
2009-07-09, 01:05:04,VALID,1003.82,VALID,0,VALID,94.5295,VALID,0,VALID,23.8009,VALID,73,VALID,0,
2009-07-09, 01:06:04,VALID,1003.81,VALID,0,VALID,94.5295,VALID,0,VALID,23.7619,VALID,73,VALID,0,
2009-07-09, 01:07:04,VALID,1003.81,VALID,0,VALID,94.5371,VALID,0,VALID,23.7832,VALID,73,VALID,0,
2009-07-09, 01:08:04,VALID,1003.8,VALID,0,VALID,94.5523,VALID,0,VALID,23.7814,VALID,73,VALID,0,
2009-07-09, 01:09:04,VALID,1003.79,VALID,0,VALID,94.6057,VALID,0,VALID,23.8203,VALID,73,VALID,0,
2009-07-09, 01:10:04,VALID,1003.75,VALID,0,VALID,94.6439,VALID,0,VALID,23.8593,VALID,73,VALID,0,
2009-07-09, 01:11:04,VALID,1003.72,VALID,0,VALID,94.6591,VALID,0,VALID,23.8593,VALID,73,VALID,0,
2009-07-09, 01:12:04,VALID,1003.7,VALID,0,VALID,94.6744,VALID,0,VALID,23.838,VALID,73,VALID,0,
2009-07-09, 01:13:04,VALID,1003.64,VALID,0,VALID,94.6591,VALID,0,VALID,23.8593,VALID,73,VALID,0,
2009-07-09, 01:14:04,VALID,1003.62,VALID,0,VALID,94.6744,VALID,0,VALID,23.8398,VALID,73,VALID,0,
2009-07-09, 01:15:04,VALID,1003.61,VALID,0,VALID,94.6744,VALID,0,VALID,23.8185,VALID,73,VALID,0,
2009-07-09, 01:16:04,VALID,1003.58,VALID,0,VALID,94.682,VALID,0,VALID,23.8009,VALID,73,VALID,0,
2009-07-09, 01:17:04,VALID,1003.53,VALID,0,VALID,94.6439,VALID,0,VALID,23.8009,VALID,73,VALID,0,
2009-07-09, 01:18:04,VALID,1003.53,VALID,0,VALID,94.6744,VALID,0,VALID,23.8398,VALID,73,VALID,0,
2009-07-09, 01:19:04,VALID,1003.53,VALID,0,VALID,94.6897,VALID,0,VALID,23.8185,VALID,73,VALID,0,
2009-07-09, 01:20:04,VALID,1003.48,VALID,0,VALID,94.682,VALID,0,VALID,23.8398,VALID,73,VALID,0,
2009-07-09, 01:21:04,VALID,1003.45,VALID,0,VALID,94.7125,VALID,0,VALID,23.8398,VALID,73,VALID,0,
2009-07-09, 01:22:04,VALID,1003.43,VALID,0,VALID,94.7049,VALID,0,VALID,23.8593,VALID,73,VALID,0,
2009-07-09, 01:23:04,VALID,1003.42,VALID,0,VALID,94.7049,VALID,0,VALID,23.8398,VALID,73,VALID,0,
2009-07-09, 01:24:04,VALID,1003.4,VALID,0,VALID,94.7354,VALID,0,VALID,23.8593,VALID,73,VALID,0,
2009-07-09, 01:25:04,VALID,1003.39,VALID,0,VALID,94.7278,VALID,0,VALID,23.8593,VALID,73,VALID,0,
2009-07-09, 01:26:04,VALID,1003.39,VALID,0,VALID,94.7278,VALID,0,VALID,23.8593,VALID,73,VALID,0,
2009-07-09, 01:27:04,VALID,1003.39,VALID,0,VALID,94.7354,VALID,0,VALID,23.8787,VALID,73,VALID,0.278516,
2009-07-09, 01:28:04,VALID,1003.42,VALID,0,VALID,94.7583,VALID,0,VALID,23.9177,VALID,73,VALID,0.433594,
2009-07-09, 01:29:04,VALID,1003.43,VALID,0,VALID,94.7812,VALID,0,VALID,23.9548,VALID,73,VALID,0.348828,
2009-07-09, 01:30:04,VALID,1003.43,VALID,0,VALID,94.8117,VALID,0,VALID,23.9761,VALID,73,VALID,0.233984,
2009-07-09, 01:31:04,VALID,1003.44,VALID,0,VALID,94.827,VALID,0,VALID,23.9761,VALID,73,VALID,0.354688,
2009-07-09, 01:32:04,VALID,1003.46,VALID,0,VALID,94.8117,VALID,0,VALID,23.9761,VALID,73,VALID,0.274219,
2009-07-09, 01:33:04,VALID,1003.46,VALID,0,VALID,94.8346,VALID,0,VALID,23.9973,VALID,73,VALID,0.344531,
2009-07-09, 01:34:04,VALID,1003.43,VALID,0,VALID,94.8422,VALID,0,VALID,23.9761,VALID,64,VALID,0.492578,
2009-07-09, 01:35:04,VALID,1003.4,VALID,0,VALID,94.8346,VALID,0,VALID,23.9566,VALID,57,VALID,0.405469,
2009-07-09, 01:36:04,VALID,1003.37,VALID,0,VALID,94.7888,VALID,0,VALID,23.8575,VALID,57,VALID,0.281641,
2009-07-09, 01:37:04,VALID,1003.38,VALID,0,VALID,94.7507,VALID,0,VALID,23.8593,VALID,57,VALID,0.291797,
2009-07-09, 01:38:04,VALID,1003.38,VALID,0,VALID,94.7354,VALID,0,VALID,23.8416,VALID,57,VALID,0.239844,
2009-07-09, 01:39:04,VALID,1003.37,VALID,0,VALID,94.7278,VALID,0,VALID,23.8203,VALID,57,VALID,0.232812,
2009-07-09, 01:40:04,VALID,1003.37,VALID,0,VALID,94.7202,VALID,0,VALID,23.7796,VALID,57,VALID,0.133594,
2009-07-09, 01:41:04,VALID,1003.34,VALID,0,VALID,94.7125,VALID,0,VALID,23.7814,VALID,57,VALID,0.380469,
2009-07-09, 01:42:04,VALID,1003.33,VALID,0,VALID,94.7049,VALID,0.100563,VALID,23.7601,VALID,57,VALID,0.230078,
2009-07-09, 01:43:04,VALID,1003.31,VALID,0,VALID,94.6897,VALID,0,VALID,23.7601,VALID,57,VALID,0,
2009-07-09, 01:44:04,VALID,1003.3,VALID,0,VALID,94.6897,VALID,0.100563,VALID,23.7601,VALID,57,VALID,0.292969,
2009-07-09, 01:45:04,VALID,1003.29,VALID,0,VALID,94.7049,VALID,0.100563,VALID,23.7601,VALID,57,VALID,0.00585938,
2009-07-09, 01:46:04,VALID,1003.29,VALID,0,VALID,94.6973,VALID,0.100563,VALID,23.7601,VALID,57,VALID,0,
2009-07-09, 01:47:04,VALID,1003.29,VALID,0,VALID,94.7278,VALID,0.100563,VALID,23.7601,VALID,57,VALID,0,
2009-07-09, 01:48:04,VALID,1003.31,VALID,0,VALID,94.7354,VALID,0.100563,VALID,23.7796,VALID,57,VALID,0.251953,
2009-07-09, 01:49:04,VALID,1003.31,VALID,0,VALID,94.7507,VALID,0,VALID,23.7796,VALID,57,VALID,0.150391,
2009-07-09, 01:50:04,VALID,1003.3,VALID,0,VALID,94.766,VALID,0.100563,VALID,23.8185,VALID,57,VALID,0.505859,
2009-07-09, 01:51:04,VALID,1003.29,VALID,0,VALID,94.7888,VALID,0.100563,VALID,23.8769,VALID,60,VALID,0.422656,
2009-07-09, 01:52:04,VALID,1003.29,VALID,0,VALID,94.8194,VALID,0.100563,VALID,23.9353,VALID,72,VALID,0.497266,
2009-07-09, 01:53:04,VALID,1003.27,VALID,0,VALID,94.8575,VALID,0,VALID,23.9742,VALID,72,VALID,0.264453,
2009-07-09, 01:54:04,VALID,1003.26,VALID,0,VALID,94.8956,VALID,0.100563,VALID,24.0132,VALID,72,VALID,0.186328,
2009-07-09, 01:55:04,VALID,1003.22,VALID,0,VALID,94.8956,VALID,0.100563,VALID,24.0132,VALID,72,VALID,0,
2009-07-09, 01:56:04,VALID,1003.21,VALID,0,VALID,94.9033,VALID,0,VALID,23.9919,VALID,72,VALID,0.210156,
2009-07-09, 01:57:04,VALID,1003.17,VALID,0,VALID,94.888,VALID,0,VALID,24.0539,VALID,72,VALID,0.377734,
2009-07-09, 01:58:04,VALID,1003.17,VALID,0,VALID,94.9033,VALID,0,VALID,24.0539,VALID,72,VALID,0.2625,
2009-07-09, 01:59:04,VALID,1003.17,VALID,0,VALID,94.9185,VALID,0,VALID,24.0326,VALID,72,VALID,0.208984,
2009-07-09, 02:00:04,VALID,1003.18,VALID,0,VALID,94.9262,VALID,0,VALID,24.0326,VALID,72,VALID,0.186719,
2009-07-09, 02:01:04,VALID,1003.16,VALID,0,VALID,94.9262,VALID,0,VALID,24.0539,VALID,72,VALID,0.162109,
2009-07-09, 02:02:04,VALID,1003.17,VALID,0,VALID,94.9185,VALID,0,VALID,24.0539,VALID,72,VALID,0.142188,
2009-07-09, 02:03:04,VALID,1003.12,VALID,0,VALID,94.9033,VALID,0,VALID,24.0539,VALID,72,VALID,0.292578,
2009-07-09, 02:04:04,VALID,1003.14,VALID,0,VALID,94.9109,VALID,0,VALID,24.0734,VALID,72,VALID,0.349609,
2009-07-09, 02:05:04,VALID,1003.13,VALID,0,VALID,94.9109,VALID,0,VALID,24.0734,VALID,72,VALID,0.262891,
2009-07-09, 02:06:04,VALID,1003.14,VALID,0,VALID,94.8956,VALID,0,VALID,24.0734,VALID,72,VALID,0.128516,
2009-07-09, 02:07:04,VALID,1003.14,VALID,0,VALID,94.8956,VALID,0,VALID,24.0929,VALID,72,VALID,0.324609,
2009-07-09, 02:08:04,VALID,1003.13,VALID,0,VALID,94.8956,VALID,0,VALID,24.0929,VALID,78,VALID,0.653906,
2009-07-09, 02:09:04,VALID,1003.18,VALID,0,VALID,94.9185,VALID,0,VALID,24.0734,VALID,117,VALID,1.15391,
2009-07-09, 02:10:04,VALID,1003.17,VALID,0,VALID,94.8804,VALID,0,VALID,24.0539,VALID,135,VALID,0.902344,
2009-07-09, 02:11:04,VALID,1003.17,VALID,0,VALID,94.8422,VALID,0,VALID,24.0734,VALID,139,VALID,0.0734375,
2009-07-09, 02:12:04,VALID,1003.15,VALID,0,VALID,94.8499,VALID,0,VALID,24.0716,VALID,139,VALID,0.257813,
2009-07-09, 02:13:04,VALID,1003.16,VALID,0,VALID,94.8499,VALID,0.100563,VALID,24.0716,VALID,139,VALID,0.340234,
2009-07-09, 02:14:04,VALID,1003.17,VALID,0,VALID,94.8575,VALID,0.100563,VALID,24.0929,VALID,114,VALID,0.279687,
2009-07-09, 02:15:04,VALID,1003.15,VALID,0,VALID,94.8346,VALID,0.100563,VALID,24.091,VALID,114,VALID,0.278516,
2009-07-09, 02:16:04,VALID,1003.17,VALID,0,VALID,94.8575,VALID,0,VALID,24.0716,VALID,113,VALID,0.253906,
2009-07-09, 02:17:04,VALID,1003.13,VALID,0,VALID,94.827,VALID,0.100563,VALID,24.091,VALID,113,VALID,0.00195313,
2009-07-09, 02:18:04,VALID,1003.15,VALID,0,VALID,94.8194,VALID,0.100563,VALID,24.0716,VALID,113,VALID,0.00820312,
2009-07-09, 02:19:04,VALID,1003.13,VALID,0,VALID,94.8041,VALID,0,VALID,24.0716,VALID,113,VALID,0.0167969,
2009-07-09, 02:20:04,VALID,1003.11,VALID,0,VALID,94.7888,VALID,0.100563,VALID,24.091,VALID,113,VALID,0.233203,
2009-07-09, 02:21:04,VALID,1003.12,VALID,0,VALID,94.7888,VALID,0.100563,VALID,24.091,VALID,113,VALID,0.155078,
2009-07-09, 02:22:04,VALID,1003.09,VALID,0,VALID,94.7812,VALID,0.100563,VALID,24.1105,VALID,113,VALID,0.377344,
2009-07-09, 02:23:04,VALID,1003.08,VALID,0,VALID,94.7965,VALID,0,VALID,24.1105,VALID,113,VALID,0.182422,
2009-07-09, 02:24:04,VALID,1003.08,VALID,0,VALID,94.766,VALID,0.100563,VALID,24.091,VALID,113,VALID,0.433594,
2009-07-09, 02:25:04,VALID,1003.05,VALID,0,VALID,94.7583,VALID,0,VALID,24.1105,VALID,113,VALID,0.190625,
2009-07-09, 02:26:04,VALID,1003.01,VALID,0,VALID,94.7507,VALID,0,VALID,24.0716,VALID,113,VALID,0.274219,
2009-07-09, 02:27:04,VALID,1003,VALID,0,VALID,94.7202,VALID,0,VALID,24.0539,VALID,113,VALID,0.122266,
2009-07-09, 02:28:04,VALID,1003.02,VALID,0,VALID,94.6973,VALID,0,VALID,24.0132,VALID,113,VALID,0.223828,
2009-07-09, 02:29:04,VALID,1002.99,VALID,0,VALID,94.6973,VALID,0,VALID,23.9742,VALID,113,VALID,0.221094,
2009-07-09, 02:30:04,VALID,1002.99,VALID,0,VALID,94.6744,VALID,0,VALID,23.9955,VALID,113,VALID,0.2125,
2009-07-09, 02:31:04,VALID,1003,VALID,0,VALID,94.6591,VALID,0,VALID,23.9353,VALID,107,VALID,0.360156,
2009-07-09, 02:32:04,VALID,1003.03,VALID,0,VALID,94.6363,VALID,0,VALID,23.9353,VALID,87,VALID,0.422656,
2009-07-09, 02:33:04,VALID,1003.02,VALID,0,VALID,94.6286,VALID,0,VALID,23.9353,VALID,86,VALID,0.592578,
2009-07-09, 02:34:04,VALID,1002.99,VALID,0,VALID,94.6591,VALID,0,VALID,23.9761,VALID,79,VALID,0.483203,
2009-07-09, 02:35:04,VALID,1003,VALID,0,VALID,94.6591,VALID,0,VALID,23.9566,VALID,78,VALID,0.489453,
2009-07-09, 02:36:04,VALID,1002.98,VALID,0,VALID,94.6744,VALID,0,VALID,23.9159,VALID,78,VALID,0.615234,
2009-07-09, 02:37:04,VALID,1002.99,VALID,0,VALID,94.6515,VALID,0,VALID,23.9177,VALID,78,VALID,0.498828,
2009-07-09, 02:38:04,VALID,1002.99,VALID,0,VALID,94.6668,VALID,0,VALID,23.9371,VALID,71,VALID,0.424219,
2009-07-09, 02:39:04,VALID,1002.99,VALID,0,VALID,94.6744,VALID,0,VALID,23.9566,VALID,71,VALID,0.267188,
2009-07-09, 02:40:04,VALID,1002.99,VALID,0,VALID,94.6973,VALID,0,VALID,23.9761,VALID,71,VALID,0.282422,
2009-07-09, 02:41:04,VALID,1003,VALID,0,VALID,94.7125,VALID,0,VALID,23.9761,VALID,71,VALID,0.133594,
2009-07-09, 02:42:04,VALID,1003,VALID,0,VALID,94.7202,VALID,0,VALID,23.9955,VALID,71,VALID,0.196484,
2009-07-09, 02:43:04,VALID,1002.98,VALID,0,VALID,94.7354,VALID,0,VALID,24.015,VALID,71,VALID,0.170703,
2009-07-09, 02:44:04,VALID,1002.98,VALID,0,VALID,94.7354,VALID,0,VALID,24.0345,VALID,71,VALID,0.148828,
2009-07-09, 02:45:04,VALID,1002.95,VALID,0,VALID,94.7507,VALID,0,VALID,24.0326,VALID,75,VALID,0.339453,
2009-07-09, 02:46:04,VALID,1002.93,VALID,0,VALID,94.7354,VALID,0,VALID,24.0539,VALID,70,VALID,0.337109,
2009-07-09, 02:47:04,VALID,1002.96,VALID,0,VALID,94.7125,VALID,0,VALID,24.0345,VALID,70,VALID,0.388672,
2009-07-09, 02:48:04,VALID,1002.95,VALID,0,VALID,94.7278,VALID,0,VALID,24.0929,VALID,70,VALID,0.616406,
2009-07-09, 02:49:04,VALID,1002.92,VALID,0,VALID,94.7125,VALID,0,VALID,24.1123,VALID,73,VALID,0.573047,
2009-07-09, 02:50:04,VALID,1002.93,VALID,0,VALID,94.6973,VALID,0,VALID,24.091,VALID,71,VALID,0.437891,
2009-07-09, 02:51:04,VALID,1002.91,VALID,0,VALID,94.6744,VALID,0,VALID,24.0734,VALID,70,VALID,0.307813,
2009-07-09, 02:52:04,VALID,1002.91,VALID,0,VALID,94.6515,VALID,0,VALID,24.0734,VALID,56,VALID,0.458203,
2009-07-09, 02:53:04,VALID,1002.89,VALID,0,VALID,94.6439,VALID,0,VALID,24.0132,VALID,56,VALID,0.421875,
2009-07-09, 02:54:04,VALID,1002.85,VALID,0,VALID,94.5981,VALID,0,VALID,24.015,VALID,52,VALID,0.507031,
2009-07-09, 02:55:04,VALID,1002.84,VALID,0,VALID,94.5752,VALID,0,VALID,24.015,VALID,48,VALID,0.364453,
2009-07-09, 02:56:04,VALID,1002.83,VALID,0,VALID,94.5829,VALID,0,VALID,24.015,VALID,48,VALID,0,
2009-07-09, 02:57:04,VALID,1002.84,VALID,0,VALID,94.5676,VALID,0,VALID,23.9742,VALID,48,VALID,0,
2009-07-09, 02:58:04,VALID,1002.84,VALID,0,VALID,94.5295,VALID,0,VALID,23.9761,VALID,48,VALID,0,
2009-07-09, 02:59:04,VALID,1002.84,VALID,0,VALID,94.5218,VALID,0,VALID,23.9566,VALID,48,VALID,0,
2009-07-09, 03:00:04,VALID,1002.84,VALID,0,VALID,94.5142,VALID,0,VALID,23.8982,VALID,48,VALID,0,
2009-07-09, 03:01:04,VALID,1002.85,VALID,0,VALID,94.4913,VALID,0,VALID,23.9177,VALID,48,VALID,0,
2009-07-09, 03:02:04,VALID,1002.82,VALID,0,VALID,94.4761,VALID,0,VALID,23.8982,VALID,48,VALID,0,
2009-07-09, 03:03:04,VALID,1002.82,VALID,0,VALID,94.4913,VALID,0,VALID,23.8982,VALID,48,VALID,0,
2009-07-09, 03:04:04,VALID,1002.82,VALID,0,VALID,94.4989,VALID,0,VALID,23.8769,VALID,48,VALID,0,
2009-07-09, 03:05:04,VALID,1002.82,VALID,0,VALID,94.5066,VALID,0,VALID,23.9177,VALID,48,VALID,0.364844,
2009-07-09, 03:06:04,VALID,1002.8,VALID,0,VALID,94.5218,VALID,0,VALID,23.8982,VALID,48,VALID,0.478906,
2009-07-09, 03:07:04,VALID,1002.8,VALID,0,VALID,94.5142,VALID,0,VALID,23.8982,VALID,48,VALID,0.323828,
2009-07-09, 03:08:04,VALID,1002.81,VALID,0,VALID,94.5142,VALID,0,VALID,23.8398,VALID,48,VALID,0.330859,
2009-07-09, 03:09:04,VALID,1002.81,VALID,0,VALID,94.4989,VALID,0,VALID,23.8203,VALID,48,VALID,0.168359,
2009-07-09, 03:10:04,VALID,1002.84,VALID,0,VALID,94.5066,VALID,0,VALID,23.8203,VALID,42,VALID,0.333594,
2009-07-09, 03:11:04,VALID,1002.85,VALID,0,VALID,94.5523,VALID,0,VALID,23.8398,VALID,1,VALID,0.736328,
2009-07-09, 03:12:04,VALID,1002.88,VALID,0,VALID,94.5523,VALID,0,VALID,23.8009,VALID,360,VALID,0.669922,
2009-07-09, 03:13:04,VALID,1002.89,VALID,0,VALID,94.5218,VALID,0,VALID,23.7601,VALID,360,VALID,0.446484,
2009-07-09, 03:14:04,VALID,1002.91,VALID,0,VALID,94.5142,VALID,0,VALID,23.7619,VALID,360,VALID,0.549609,
2009-07-09, 03:15:04,VALID,1002.93,VALID,0,VALID,94.5066,VALID,0,VALID,23.7425,VALID,359,VALID,0.644531,
2009-07-09, 03:16:04,VALID,1002.89,VALID,0,VALID,94.5218,VALID,0,VALID,23.7814,VALID,359,VALID,0.527344,
2009-07-09, 03:17:04,VALID,1002.89,VALID,0,VALID,94.5523,VALID,0,VALID,23.7619,VALID,359,VALID,0.535156,
2009-07-09, 03:18:04,VALID,1002.9,VALID,0,VALID,94.5829,VALID,0,VALID,23.7425,VALID,359,VALID,0.224609,
2009-07-09, 03:19:04,VALID,1002.92,VALID,0,VALID,94.5676,VALID,0,VALID,23.7425,VALID,359,VALID,0.0164062,
2009-07-09, 03:20:04,VALID,1002.91,VALID,0,VALID,94.56,VALID,0,VALID,23.7425,VALID,359,VALID,0,
2009-07-09, 03:21:04,VALID,1002.92,VALID,0,VALID,94.5752,VALID,0,VALID,23.723,VALID,359,VALID,0,
2009-07-09, 03:22:04,VALID,1002.92,VALID,0,VALID,94.5676,VALID,0,VALID,23.6841,VALID,359,VALID,0,
2009-07-09, 03:23:04,VALID,1002.93,VALID,0,VALID,94.56,VALID,0,VALID,23.6646,VALID,359,VALID,0.117969,
2009-07-09, 03:24:04,VALID,1002.92,VALID,0,VALID,94.5523,VALID,0,VALID,23.6452,VALID,359,VALID,0.329688,
2009-07-09, 03:25:04,VALID,1002.89,VALID,0,VALID,94.5371,VALID,0,VALID,23.585,VALID,359,VALID,0.300781,
2009-07-09, 03:26:04,VALID,1002.9,VALID,0,VALID,94.5523,VALID,0,VALID,23.5868,VALID,359,VALID,0.413281,
2009-07-09, 03:27:04,VALID,1002.91,VALID,0,VALID,94.56,VALID,0,VALID,23.5655,VALID,359,VALID,0.269141,
2009-07-09, 03:28:04,VALID,1002.89,VALID,0,VALID,94.5829,VALID,0,VALID,23.546,VALID,359,VALID,0.234375,
2009-07-09, 03:29:04,VALID,1002.9,VALID,0,VALID,94.56,VALID,0,VALID,23.5089,VALID,359,VALID,0.221094,
2009-07-09, 03:30:04,VALID,1002.88,VALID,0,VALID,94.56,VALID,0,VALID,23.4894,VALID,359,VALID,0.253516,
2009-07-09, 03:31:04,VALID,1002.84,VALID,0,VALID,94.5752,VALID,0,VALID,23.47,VALID,359,VALID,0.539453,
2009-07-09, 03:32:04,VALID,1002.87,VALID,0,VALID,94.5676,VALID,0,VALID,23.4098,VALID,359,VALID,0.319141,
2009-07-09, 03:33:04,VALID,1002.85,VALID,0,VALID,94.5676,VALID,0,VALID,23.3709,VALID,359,VALID,0,
2009-07-09, 03:34:04,VALID,1002.87,VALID,0,VALID,94.5676,VALID,0,VALID,23.3921,VALID,359,VALID,0,
2009-07-09, 03:35:04,VALID,1002.85,VALID,0,VALID,94.56,VALID,0,VALID,23.3727,VALID,359,VALID,0,
2009-07-09, 03:36:04,VALID,1002.88,VALID,0,VALID,94.621,VALID,0,VALID,23.4116,VALID,359,VALID,0,
2009-07-09, 03:37:04,VALID,1002.83,VALID,0,VALID,94.682,VALID,0,VALID,23.4293,VALID,359,VALID,0,
2009-07-09, 03:38:04,VALID,1002.86,VALID,0,VALID,94.7583,VALID,0,VALID,23.5284,VALID,359,VALID,0,
2009-07-09, 03:39:04,VALID,1002.86,VALID,0,VALID,94.8041,VALID,0,VALID,23.5284,VALID,359,VALID,0.171875,
2009-07-09, 03:40:04,VALID,1002.84,VALID,0,VALID,94.8422,VALID,0,VALID,23.546,VALID,359,VALID,0.562891,
2009-07-09, 03:41:04,VALID,1002.85,VALID,0,VALID,94.8499,VALID,0,VALID,23.5478,VALID,359,VALID,0.571484,
2009-07-09, 03:42:04,VALID,1002.84,VALID,0,VALID,94.8499,VALID,0,VALID,23.5089,VALID,359,VALID,0.580469,
2009-07-09, 03:43:04,VALID,1002.84,VALID,0,VALID,94.8422,VALID,0,VALID,23.4877,VALID,359,VALID,0.620313,
2009-07-09, 03:44:04,VALID,1002.82,VALID,0,VALID,94.8575,VALID,0,VALID,23.5071,VALID,359,VALID,0.625781,
2009-07-09, 03:45:04,VALID,1002.81,VALID,0,VALID,94.8575,VALID,0,VALID,23.5089,VALID,359,VALID,0.532812,
2009-07-09, 03:46:04,VALID,1002.78,VALID,0,VALID,94.888,VALID,0,VALID,23.5089,VALID,359,VALID,0.373437,
2009-07-09, 03:47:04,VALID,1002.75,VALID,0,VALID,94.9033,VALID,0,VALID,23.5284,VALID,359,VALID,0.477344,
2009-07-09, 03:48:04,VALID,1002.77,VALID,0,VALID,94.9033,VALID,0,VALID,23.5089,VALID,359,VALID,0.338672,